[[{"header":{"parameterUnit":"m.s-1","parameterCategory":1,"la1":30.2991,"la2":30.254,"lo1":-89.0895,"lo2":-89.0444,"dy":0.0017,"dx":0.0017,"nx":28,"ny":28,"refTime":"2026-02-10T03:00:00:Z","depth":0,"parameterNumber":2,"parameterNumberName":"U-component_of_WINDS"},"data":[0,0,0,0,0,0,0,0,0,0,0,0,0,0,0,0,0,0,0,0,0,0,0,0,0,0,0,0,0,0,0,0,0,0,0,0,0,0,0,0,0,0,0,0,0,0,0,0,0,0,0,0,0,0,0,0,0,0,0.5063,0.5064,0,0.5139,0.514,0.5141,0.5172,0.5172,0.5172,0.5172,0.5252,0.5254,0.5257,0,0,0,0,0,0,0,0,0,0,0,0,0,0.4949,0.4951,0.5063,0.5064,0.5065,0.5139,0.514,0.5141,0.5172,0.5172,0.5172,0.5171,0.5251,0.5254,0.5257,0,0,0,0,0,0,0,0,0,0,0,0,0,0.5009,0.4951,0.5063,0.5089,0.5093,0.5139,0.514,0.5142,0.5172,0.5172,0.5172,0.5171,0.525,0.5254,0.5257,0.5284,0,0,0.5268,0.5269,0,0,0,0,0,0,0,0,0.5006,0.5013,0.5085,0.5088,0.5091,0.5146,0.5129,0.5189,0.5172,0.5142,0.5172,0.5171,0.5217,0.5223,0.5238,0.5288,0.5291,0.5268,0.527,0.5272,0.5273,0,0,0,0,0,0,0,0.5001,0.501,0.5094,0.5086,0.509,0.5099,0.5107,0.5141,0.518,0.5145,0.5147,0.5155,0.5219,0.5235,0.524,0.5292,0.5268,0.5271,0.5273,0.5275,0.5369,0.537,0,0,0,0,0,0,0.4992,0.5006,0.5091,0.5096,0.5047,0.5101,0.511,0.5129,0.518,0.5187,0.5156,0.5157,0.5229,0.5236,0.5243,0.5279,0.5272,0.5275,0.5277,0.5369,0.537,0.537,0,0,0,0,0,0,0.499,0.5,0.5088,0.5052,0.5064,0.5103,0.5124,0.513,0.5146,0.5188,0.5196,0.5164,0.5229,0.5238,0.5274,0.5282,0.5276,0.528,0.5369,0.5369,0.537,0.535,0,0,0,0,0,0,0.4986,0.4998,0.5008,0.5052,0.5066,0.5116,0.5124,0.5132,0.5152,0.5154,0.5198,0.5206,0.523,0.5268,0.5277,0.5287,0.5282,0.5368,0.5369,0.537,0.535,0.535,0.535,0,0,0,0,0,0.4982,0.5,0.5008,0.5018,0.5078,0.5116,0.5124,0.5151,0.5152,0.5163,0.519,0.5204,0.528,0.5272,0.5282,0.5293,0.5368,0.5369,0.537,0.535,0.535,0.535,0,0,0,0,0,0,0.4957,0.5006,0.5016,0.5048,0.5078,0.5121,0.5136,0.515,0.518,0.5181,0.5213,0.5223,0.5256,0.5278,0.5268,0.5322,0.5325,0.5328,0.5307,0.5307,0.5307,0.5301,0.5285,0,0,0,0,0,0.4954,0.498,0.5022,0.5047,0.5061,0.5096,0.5113,0.5131,0.5164,0.5177,0.5207,0.5238,0.527,0.5289,0.532,0.5353,0.5364,0.5366,0.5366,0.5365,0.5368,0.5389,0.539,0.5373,0.5373,0.5373,0,0,0.4951,0.4981,0.4995,0.5042,0.5067,0.5095,0.5106,0.5134,0.5155,0.5181,0.5216,0.524,0.5278,0.5312,0.5329,0.5331,0.5375,0.5367,0.5366,0.5369,0.539,0.5391,0.5393,0.5374,0.5374,0.5374,0,0,0.4958,0.4983,0.5006,0.5031,0.5069,0.5092,0.5098,0.514,0.5156,0.5192,0.5212,0.5239,0.5291,0.5318,0.5338,0.5357,0.5371,0.5366,0.5365,0.5385,0.5386,0.5388,0.5395,0.5398,0.5368,0.5368,0.5368,0,0.4949,0.499,0.5017,0.5044,0.5065,0.5089,0.5114,0.5137,0.5184,0.5198,0.52,0.5267,0.5295,0.5336,0.5341,0.5356,0.5365,0.5361,0.5384,0.5385,0.5387,0.5395,0.5397,0.5367,0.5367,0.5367,0.5368,0,0.4977,0.5005,0.502,0.5063,0.5086,0.5112,0.5144,0.5164,0.518,0.5204,0.5241,0.5274,0.5313,0.5324,0.534,0.5369,0.5369,0.5377,0.538,0.5387,0.5395,0.5398,0.5366,0.5366,0.5367,0.5367,0,0,0.4969,0.5028,0.5033,0.5054,0.5098,0.5121,0.5149,0.5186,0.5203,0.5235,0.526,0.5304,0.5312,0.5335,0.5355,0.5372,0.5386,0.5378,0.5379,0.5379,0.5421,0.5415,0.5418,0.5396,0.5397,0.5397,0.5418,0,0.4983,0.5033,0.5059,0.5098,0.5125,0.5149,0.5174,0.5205,0.5227,0.5255,0.5281,0.5312,0.5319,0.5334,0.5352,0.538,0.5395,0.5379,0.5421,0.5422,0.5411,0.5422,0.5416,0.5434,0.5421,0.5422,0.5422,0,0.5005,0.5036,0.5078,0.512,0.5132,0.5154,0.5191,0.5216,0.5252,0.5268,0.5294,0.5314,0.5346,0.5346,0.5392,0.538,0.5399,0.5416,0.5417,0.5423,0.5423,0.5428,0.544,0.5443,0.5427,0.5427,0.5426,0,0.4997,0.5049,0.5081,0.5097,0.5147,0.5162,0.5184,0.5219,0.524,0.5273,0.5287,0.5324,0.5344,0.5372,0.5401,0.5399,0.5444,0.5447,0.5459,0.5459,0.5468,0.5467,0.5484,0.5479,0.5479,0.5479,0.5479,0,0.5009,0.5034,0.5077,0.5097,0.5126,0.5157,0.5185,0.5209,0.524,0.5266,0.529,0.5314,0.5351,0.538,0.5404,0.5438,0.5447,0.5462,0.5468,0.546,0.5458,0.5473,0.5473,0.548,0.5479,0.5479,0.5479,0,0.5004,0.5034,0.5071,0.5115,0.5127,0.5147,0.5185,0.5206,0.5231,0.5263,0.5273,0.5312,0.5347,0.5379,0.5427,0.5443,0.5478,0.5486,0.5466,0.5469,0.548,0.5479,0.5507,0.5513,0.5503,0.5503,0.5503,0,0.501,0.503,0.5077,0.5095,0.5116,0.5146,0.5168,0.5199,0.5221,0.5264,0.528,0.5318,0.5349,0.5405,0.5439,0.5475,0.5484,0.5492,0.549,0.5482,0.5485,0.5484,0.5487,0.5491,0.5491,0.5491,0.5491,0,0.5018,0.5033,0.5062,0.5098,0.5123,0.5153,0.5184,0.5198,0.5235,0.5259,0.5296,0.532,0.5369,0.5406,0.5447,0.5471,0.5488,0.5492,0.5497,0.5489,0.5477,0.5484,0.5466,0.5491,0.5491,0.5491,0.5491,0.5491,0.502,0.5039,0.5075,0.5108,0.5134,0.5163,0.5185,0.5212,0.5243,0.5284,0.5301,0.5339,0.5376,0.5433,0.5457,0.5487,0.5491,0.5497,0.5499,0.5501,0.55,0.5472,0.5495,0.5495,0.5495,0.5495,0.5495,0,0.503,0.5054,0.5084,0.5127,0.5153,0.5166,0.5201,0.5223,0.5255,0.5288,0.5318,0.5361,0.5398,0.5434,0.5473,0.5491,0.55,0.55,0.5499,0.5505,0.5494,0.5486,0.5492,0.5492,0.5492,0.5492,0.5492,0.5492,0.5038,0.5071,0.509,0.5137,0.5162,0.5199,0.5218,0.5245,0.5271,0.5317,0.5348,0.5371,0.5406,0.5448,0.5483,0.5493,0.5506,0.5505,0.5517,0.5506,0.5506,0.5505,0.5498,0.5507,0.5507,0.5526,0.5526,0.5526]},{"header":{"parameterUnit":"m.s-1","parameterCategory":1,"la1":30.2991,"la2":30.254,"lo1":-89.0895,"lo2":-89.0444,"dy":0.0017,"dx":0.0017,"nx":28,"ny":28,"refTime":"2026-02-10T03:00:00:Z","depth":0,"parameterNumber":3,"parameterNumberName":"V-component_of_WINDS"},"data":[0,0,0,0,0,0,0,0,0,0,0,0,0,0,0,0,0,0,0,0,0,0,0,0,0,0,0,0,0,0,0,0,0,0,0,0,0,0,0,0,0,0,0,0,0,0,0,0,0,0,0,0,0,0,0,0,0,0,1.7974,1.7974,0,1.7995,1.7995,1.7995,1.7988,1.7988,1.7987,1.7987,1.8007,1.8008,1.8009,0,0,0,0,0,0,0,0,0,0,0,0,0,1.7929,1.793,1.7974,1.7974,1.7975,1.7995,1.7995,1.7995,1.7988,1.7988,1.7987,1.7987,1.8007,1.8008,1.8009,0,0,0,0,0,0,0,0,0,0,0,0,0,1.7949,1.793,1.7974,1.7974,1.7974,1.7995,1.7995,1.7995,1.7989,1.7988,1.7987,1.7987,1.8006,1.8008,1.8009,1.8031,0,0,1.8013,1.8014,0,0,0,0,0,0,0,0,1.7948,1.7951,1.7973,1.7974,1.7974,1.7988,1.7986,1.8007,1.7989,1.7983,1.7987,1.7986,1.8001,1.8003,1.8008,1.8032,1.8033,1.8013,1.8014,1.8015,1.8015,0,0,0,0,0,0,0,1.7946,1.795,1.7982,1.7974,1.7974,1.7973,1.7975,1.799,1.7995,1.7983,1.7983,1.7986,1.8001,1.8007,1.8009,1.8033,1.8013,1.8015,1.8015,1.8016,1.8078,1.8079,0,0,0,0,0,0,1.7945,1.7949,1.7982,1.7983,1.7959,1.7974,1.7976,1.7984,1.7995,1.7996,1.7986,1.7985,1.8005,1.8007,1.8009,1.8038,1.8015,1.8016,1.8017,1.8077,1.8078,1.8079,0,0,0,0,0,0,1.7944,1.7948,1.7981,1.7966,1.797,1.7975,1.7985,1.7985,1.7991,1.7997,1.7998,1.7991,1.8004,1.8007,1.8026,1.8038,1.8017,1.8018,1.8077,1.8078,1.8079,1.8093,0,0,0,0,0,0,1.7943,1.7948,1.7956,1.7966,1.7971,1.7997,1.7985,1.7986,1.7993,1.7992,1.8002,1.8003,1.8004,1.8024,1.8028,1.804,1.8019,1.8075,1.8077,1.8079,1.8092,1.8095,1.8097,0,0,0,0,0,1.7941,1.7958,1.7956,1.796,1.7981,1.7998,1.8001,1.8002,1.7994,1.8003,1.8008,1.8003,1.8036,1.8026,1.803,1.8043,1.8075,1.8077,1.8078,1.8091,1.8094,1.8097,0,0,0,0,0,0,1.7948,1.7959,1.7957,1.7978,1.7988,1.7997,1.8008,1.8005,1.8016,1.8015,1.8015,1.8017,1.8037,1.8042,1.803,1.8066,1.8054,1.8057,1.8062,1.8066,1.8069,1.8068,1.802,0,0,0,0,0,1.7953,1.7966,1.7975,1.7992,1.7997,1.8002,1.8009,1.8009,1.8018,1.8022,1.8028,1.8037,1.805,1.8058,1.807,1.8092,1.8095,1.8103,1.8106,1.8108,1.8111,1.8125,1.8129,1.8085,1.8085,1.8085,0,0,1.7961,1.7969,1.7977,1.7994,1.8001,1.8015,1.8005,1.8019,1.803,1.8024,1.8043,1.8048,1.8058,1.8079,1.8089,1.8084,1.8124,1.811,1.8112,1.8114,1.8127,1.8132,1.8135,1.8087,1.8086,1.8086,0,0,1.7984,1.7991,1.8007,1.8015,1.8026,1.803,1.8034,1.8044,1.8047,1.8067,1.8063,1.8076,1.8097,1.8105,1.8112,1.814,1.8137,1.8144,1.8159,1.8173,1.8177,1.818,1.8192,1.8196,1.8146,1.8146,1.8146,0,1.7993,1.8014,1.8016,1.8032,1.804,1.8036,1.8054,1.8061,1.8075,1.8081,1.8075,1.8103,1.811,1.8134,1.8141,1.8146,1.8152,1.8143,1.8176,1.8179,1.8182,1.8193,1.8198,1.8147,1.8147,1.8147,1.8147,0,1.8026,1.8041,1.8053,1.8068,1.8078,1.8094,1.8098,1.8108,1.8108,1.8112,1.8133,1.814,1.8155,1.816,1.8159,1.8185,1.8182,1.8176,1.8165,1.8187,1.8198,1.8202,1.8149,1.8148,1.8148,1.8148,0,0,1.8053,1.8071,1.8075,1.8083,1.8097,1.8108,1.8125,1.814,1.8149,1.8159,1.8174,1.8193,1.8189,1.8196,1.8197,1.8209,1.8234,1.8202,1.8202,1.8209,1.8264,1.827,1.8275,1.8231,1.8232,1.8233,1.8264,0,1.8078,1.8109,1.8112,1.8139,1.8154,1.8151,1.8166,1.8176,1.8181,1.8194,1.8199,1.8214,1.8205,1.821,1.8222,1.8228,1.8245,1.8226,1.8246,1.8247,1.8245,1.828,1.8286,1.8315,1.8268,1.8269,1.8269,0,1.8112,1.8125,1.8154,1.8168,1.8174,1.8187,1.8203,1.8215,1.8227,1.8229,1.8239,1.8239,1.8257,1.8245,1.827,1.8257,1.8265,1.827,1.8271,1.8274,1.826,1.8285,1.8324,1.8329,1.8276,1.8275,1.8275,0,1.8131,1.8156,1.8177,1.8184,1.8199,1.8209,1.8216,1.8227,1.8237,1.825,1.8257,1.8271,1.828,1.8291,1.8295,1.8285,1.8321,1.8308,1.8325,1.8325,1.8333,1.8332,1.8375,1.8336,1.8336,1.8336,1.8336,0,1.816,1.8178,1.8186,1.82,1.8221,1.8224,1.8245,1.8251,1.8261,1.8276,1.8274,1.8288,1.8292,1.8306,1.8309,1.8331,1.8334,1.8338,1.8338,1.8339,1.8338,1.8345,1.8343,1.8337,1.8337,1.8337,1.8336,0,1.8185,1.8191,1.8214,1.8228,1.8232,1.8247,1.8259,1.8272,1.8277,1.8296,1.8301,1.8309,1.8326,1.8331,1.8351,1.8353,1.8379,1.8377,1.8376,1.8376,1.8393,1.8392,1.8442,1.8449,1.8404,1.8405,1.8405,0,1.8203,1.8218,1.8234,1.8244,1.8252,1.8268,1.8279,1.8283,1.8294,1.831,1.8321,1.8339,1.8353,1.8381,1.8389,1.8405,1.8404,1.8421,1.8406,1.8407,1.8406,1.8406,1.8408,1.8423,1.8424,1.8424,1.8425,0,1.8236,1.8239,1.8254,1.8272,1.8285,1.8298,1.8311,1.8319,1.8325,1.8338,1.8356,1.8368,1.839,1.8408,1.8424,1.8431,1.843,1.8429,1.8434,1.8435,1.8434,1.8437,1.8385,1.8428,1.8428,1.8427,1.8427,1.8427,1.8259,1.8273,1.8287,1.8305,1.8315,1.8328,1.8342,1.835,1.8365,1.8385,1.8386,1.8406,1.842,1.8442,1.845,1.8467,1.8462,1.8468,1.847,1.8472,1.8475,1.8431,1.847,1.8469,1.8469,1.8469,1.8469,0,1.8293,1.8303,1.8319,1.8339,1.8353,1.8351,1.8365,1.8378,1.8396,1.8409,1.8424,1.8446,1.8464,1.8474,1.8492,1.8503,1.8503,1.8508,1.8508,1.851,1.8477,1.8472,1.8508,1.8508,1.8508,1.8508,1.8508,1.8508,1.8313,1.8337,1.8342,1.8371,1.838,1.8401,1.841,1.8423,1.8433,1.8459,1.8474,1.848,1.8492,1.8512,1.8528,1.8531,1.8538,1.8544,1.8546,1.8515,1.8512,1.8508,1.8503,1.8545,1.8545,1.8577,1.8578,1.8578]}]]